Change the Weather History Date:

Saturday, May 18, 2013

  Actual Average (KOTG) Record (KOTG)
Temperature  
Mean Temperature 72 °F -  
Max Temperature 83 °F 64 °F 93 °F (1987)
Min Temperature 62 °F 45 °F 33 °F (2002)
Cooling Degree Days 8    
Growing Degree Days 22 (Base 50)    
Moisture  
Dew Point 59 °F    
Average Humidity 67    
Maximum Humidity 94    
Minimum Humidity 36    
Precipitation  
Precipitation 0.00 in - - ()
Sea Level Pressure  
Sea Level Pressure 29.85 in    
Wind  
Wind Speed 13 mph (South)    
Max Wind Speed 26 mph    
Max Gust Speed 32 mph    
Visibility 10 miles    
Events Thunderstorm    
Averages and records for this station are not official NWS values.
T = Trace of Precipitation, MM = Missing Value Source: NWS Daily Summary

Daily Weather History Graph

Daily Weather History Graph

Search for Another Location

Airport or City:

Trip Planner

Search our weather history database for the weather conditions in past years. The results will help you decide how hot, cold, wet, or windy it might be!

Date:

Astronomy

May. 18, 2013 Rise Set
Actual Time 5:53 AM CDT 8:46 PM CDT
Civil Twilight 5:19 AM CDT 9:19 PM CDT
Nautical Twilight 4:37 AM CDT 10:03 PM CDT
Astronomical Twilight 3:47 AM CDT 10:53 PM CDT
Moon 1:36 PM CDT (5/18) 2:01 AM CDT (5/18)
Length of Visible Light 16h 00m
Length of Day
14h 52m
First Quarter, 55% of the Moon is Illuminated
May 18
First Quarter
May 24
Full
May 31
Last Quarter
Jun 8
New
Jun 16
First Quarter

Hourly Weather History & Observations

Time (CDT) Temp. Heat Index Dew Point Humidity Pressure Visibility Wind Dir Wind Speed Gust Speed Precip Events Conditions
12:13 AM 63.5 °F - 61.3 °F 93% 29.88 in 10.0 mi SE 11.5 mph - N/A   Clear
12:33 AM 63.5 °F - 61.7 °F 94% 29.89 in 7.0 mi SE 12.7 mph - N/A   Clear
12:53 AM 63.7 °F - 61.3 °F 92% 29.89 in 10.0 mi SE 10.4 mph - N/A   Clear
1:13 AM 63.0 °F - 60.8 °F 93% 29.90 in 10.0 mi SSE 11.5 mph - N/A   Clear
1:32 AM 62.8 °F - 60.6 °F 93% 29.89 in 10.0 mi SE 11.5 mph - N/A Thunderstorm Clear
1:54 AM 63.0 °F - 60.3 °F 91% 29.89 in 10.0 mi SSE 10.4 mph - N/A   Clear
2:14 AM 63.0 °F - 60.1 °F 90% 29.89 in 10.0 mi SSE 10.4 mph - N/A   Clear
2:33 AM 63.7 °F - 60.3 °F 89% 29.89 in 10.0 mi SSE 10.4 mph - N/A   Scattered Clouds
2:54 AM 63.9 °F - 60.1 °F 87% 29.88 in 10.0 mi South 11.5 mph - N/A   Mostly Cloudy
3:13 AM 64.8 °F - 59.9 °F 84% 29.88 in 10.0 mi South 11.5 mph - N/A Thunderstorm Scattered Clouds
3:33 AM 64.8 °F - 59.9 °F 84% 29.88 in 10.0 mi South 12.7 mph - N/A   Clear
3:53 AM 64.9 °F - 59.7 °F 83% 29.87 in 10.0 mi South 13.8 mph 19.6 mph N/A   Clear
4:13 AM 65.1 °F - 59.4 °F 82% 29.87 in 10.0 mi South 13.8 mph 20.7 mph N/A   Clear
4:33 AM 64.8 °F - 59.2 °F 82% 29.88 in 10.0 mi South 13.8 mph 20.7 mph N/A   Clear
4:53 AM 64.6 °F - 59.2 °F 83% 29.87 in 10.0 mi South 13.8 mph 19.6 mph N/A   Clear
5:13 AM 64.6 °F - 59.2 °F 83% 29.88 in 10.0 mi South 15.0 mph - N/A   Clear
5:33 AM 64.8 °F - 59.4 °F 83% 29.88 in 10.0 mi South 16.1 mph - N/A   Mostly Cloudy
5:55 AM 64.4 °F - 59.5 °F 84% 29.89 in 10.0 mi SSW 16.1 mph - N/A   Overcast
6:13 AM 64.8 °F - 59.5 °F 83% 29.89 in 10.0 mi SSW 16.1 mph - N/A   Overcast
6:33 AM 64.4 °F - 59.5 °F 84% 29.91 in 10.0 mi SSW 17.3 mph - N/A   Overcast
6:54 AM 64.4 °F - 59.5 °F 84% 29.91 in 10.0 mi South 12.7 mph 19.6 mph N/A   Overcast
7:13 AM 64.4 °F - 59.7 °F 85% 29.91 in 10.0 mi South 13.8 mph - N/A   Mostly Cloudy
7:34 AM 64.8 °F - 60.1 °F 85% 29.90 in 10.0 mi South 15.0 mph - N/A   Clear
7:53 AM 64.9 °F - 59.9 °F 84% 29.90 in 10.0 mi South 15.0 mph - N/A   Clear
8:14 AM 65.3 °F - 60.1 °F 83% 29.89 in 10.0 mi SSW 17.3 mph 23.0 mph N/A   Clear
8:33 AM 66.0 °F - 60.4 °F 82% 29.91 in 10.0 mi WSW 12.7 mph - N/A   Clear
8:53 AM 67.3 °F - 60.8 °F 80% 29.92 in 10.0 mi SW 16.1 mph - N/A Thunderstorm Clear
9:13 AM 68.2 °F - 60.8 °F 77% 29.92 in 10.0 mi SW 17.3 mph - N/A   Clear
9:34 AM 70.0 °F - 61.5 °F 74% 29.92 in 10.0 mi SW 15.0 mph - N/A   Clear
9:54 AM 70.7 °F - 61.7 °F 73% 29.92 in 10.0 mi SW 17.3 mph - N/A   Clear
10:13 AM 71.6 °F - 62.1 °F 72% 29.91 in 10.0 mi SSW 12.7 mph - N/A   Clear
10:34 AM 72.5 °F - 61.9 °F 69% 29.91 in 10.0 mi SW 10.4 mph - N/A   Clear
10:53 AM 73.4 °F - 62.4 °F 68% 29.91 in 10.0 mi SW 10.4 mph - N/A   Clear
11:13 AM 74.3 °F - 62.6 °F 67% 29.90 in 7.0 mi SW 10.4 mph - N/A   Clear
11:33 AM 75.6 °F - 62.1 °F 63% 29.90 in 10.0 mi SW 10.4 mph - N/A   Clear
11:54 AM 76.1 °F - 62.1 °F 62% 29.89 in 10.0 mi SSW 9.2 mph - N/A   Clear
12:13 PM 75.7 °F - 61.7 °F 62% 29.88 in 10.0 mi SSW 9.2 mph 16.1 mph N/A   Clear
12:33 PM 77.4 °F - 62.1 °F 59% 29.88 in 10.0 mi South 9.2 mph - N/A   Clear
12:53 PM 78.1 °F - 61.0 °F 56% 29.87 in 10.0 mi SSW 6.9 mph - N/A   Clear
1:14 PM 78.3 °F - 60.6 °F 54% 29.87 in 10.0 mi SSE 8.1 mph - N/A   Scattered Clouds
1:33 PM 78.4 °F - 60.3 °F 53% 29.86 in 10.0 mi SSW 10.4 mph 16.1 mph N/A   Mostly Cloudy
2:12 PM 80.8 °F 81.2 °F 58.6 °F 47% 29.85 in 10.0 mi SSE 16.1 mph 19.6 mph N/A   Scattered Clouds
2:33 PM 82.2 °F 82.0 °F 57.4 °F 43% 29.84 in 10.0 mi South 15.0 mph 24.2 mph N/A   Scattered Clouds
2:53 PM 81.7 °F 81.3 °F 56.1 °F 41% 29.84 in 10.0 mi SSE 17.3 mph 23.0 mph N/A   Clear
3:13 PM 81.1 °F 80.9 °F 55.4 °F 41% 29.84 in 10.0 mi SSE 18.4 mph 23.0 mph N/A   Scattered Clouds
3:33 PM 81.7 °F 81.3 °F 56.1 °F 41% 29.83 in 10.0 mi SSE 23.0 mph - N/A   Scattered Clouds
3:54 PM 82.6 °F 82.0 °F 55.9 °F 40% 29.82 in 10.0 mi SSE 24.2 mph 28.8 mph N/A   Scattered Clouds
4:13 PM 83.5 °F 82.4 °F 54.9 °F 37% 29.81 in 10.0 mi SSE 23.0 mph 29.9 mph N/A   Clear
4:34 PM 83.5 °F 82.2 °F 54.0 °F 36% 29.81 in 10.0 mi SSE 21.9 mph - N/A   Clear
4:54 PM 81.1 °F 80.8 °F 54.5 °F 40% 29.82 in 10.0 mi SSE 24.2 mph - N/A   Clear
5:14 PM 81.9 °F 81.3 °F 55.0 °F 40% 29.81 in 10.0 mi SSE 26.5 mph 29.9 mph N/A   Clear
5:32 PM 81.9 °F 81.2 °F 54.7 °F 39% 29.81 in 10.0 mi South 21.9 mph 32.2 mph N/A   Clear
5:53 PM 82.6 °F 81.7 °F 54.5 °F 38% 29.81 in 10.0 mi South 25.3 mph 31.1 mph N/A   Clear
6:13 PM 81.9 °F 81.2 °F 54.3 °F 39% 29.81 in 10.0 mi SSE 21.9 mph 27.6 mph N/A   Clear
6:33 PM 81.5 °F 80.9 °F 54.5 °F 39% 29.81 in 10.0 mi South 23.0 mph 27.6 mph N/A   Clear
6:54 PM 80.6 °F 80.4 °F 54.7 °F 41% 29.81 in 10.0 mi South 20.7 mph 25.3 mph N/A   Scattered Clouds
7:13 PM 80.1 °F 80.1 °F 55.2 °F 42% 29.80 in 10.0 mi South 17.3 mph 24.2 mph N/A   Mostly Cloudy
7:33 PM 79.0 °F - 55.8 °F 45% 29.79 in 10.0 mi SSE 17.3 mph - N/A   Scattered Clouds
7:52 PM 78.1 °F - 56.5 °F 47% 29.79 in 10.0 mi SSE 10.4 mph - N/A   Clear
8:13 PM 76.8 °F - 57.2 °F 51% 29.78 in 10.0 mi SE 9.2 mph - N/A   Clear
8:33 PM 75.2 °F - 57.6 °F 54% 29.77 in 10.0 mi SE 8.1 mph - N/A   Clear
8:54 PM 73.4 °F - 57.6 °F 58% 29.77 in 10.0 mi SE 8.1 mph - N/A   Clear
9:13 PM 72.5 °F - 57.7 °F 60% 29.78 in 10.0 mi SE 8.1 mph - N/A   Clear
9:33 PM 70.7 °F - 58.1 °F 64% 29.78 in 10.0 mi SE 8.1 mph - N/A   Clear
9:53 PM 70.0 °F - 58.1 °F 66% 29.79 in 10.0 mi SE 8.1 mph - N/A   Clear
10:12 PM 69.3 °F - 58.3 °F 68% 29.78 in 10.0 mi SE 9.2 mph - N/A   Clear
10:34 PM 69.8 °F - 58.6 °F 68% 29.77 in 10.0 mi ESE 8.1 mph - N/A   Clear
10:54 PM 69.8 °F - 59.2 °F 69% 29.77 in 10.0 mi SE 9.2 mph - N/A   Clear
11:13 PM 69.1 °F - 59.7 °F 72% 29.77 in 10.0 mi SE 9.2 mph - N/A   Scattered Clouds
11:33 PM 69.3 °F - 60.4 °F 73% 29.77 in 10.0 mi SE 9.2 mph - N/A   Mostly Cloudy
11:54 PM 69.1 °F - 60.3 °F 73% 29.77 in 10.0 mi SE 11.5 mph - N/A   Scattered Clouds